Time,TemperatureF,DewpointF,PressureIn,WindDirection,WindDirectionDegrees,WindSpeedMPH,WindSpeedGustMPH,Humidity,HourlyPrecipIn,Conditions,Clouds,dailyrainin,SoftwareType,DateUTC
2013-06-12 00:01:00,74.3,71.8,29.63,South,180,3.7,-999.0,92,-99.99,,,0.00,Acu-Link.com,2013-06-12 04:01:00,
2013-06-12 00:17:00,74.1,71.9,29.63,South,180,2.7,-999.0,93,-99.99,,,0.00,Acu-Link.com,2013-06-12 04:17:00,
2013-06-12 00:32:00,73.9,72.1,29.64,SSW,202,2.7,-999.0,94,-99.99,,,0.00,Acu-Link.com,2013-06-12 04:32:00,
2013-06-12 00:47:00,73.8,72.3,29.63,SSW,202,3.7,-999.0,95,-99.99,,,0.00,Acu-Link.com,2013-06-12 04:47:00,
2013-06-12 01:02:00,73.8,72.6,29.62,SSW,202,4.7,-999.0,96,-99.99,,,0.00,Acu-Link.com,2013-06-12 05:02:00,
2013-06-12 01:18:00,73.8,72.6,29.63,SSW,202,4.7,-999.0,96,-99.99,,,0.00,Acu-Link.com,2013-06-12 05:18:00,
2013-06-12 01:33:00,73.9,72.7,29.62,South,180,4.7,-999.0,96,-99.99,,,0.00,Acu-Link.com,2013-06-12 05:33:00,
2013-06-12 01:48:00,73.8,72.9,29.62,SSW,202,6.8,-999.0,97,-99.99,,,0.00,Acu-Link.com,2013-06-12 05:48:00,
2013-06-12 02:03:00,73.8,72.9,29.62,SSW,202,6.3,-999.0,97,-99.99,,,0.00,Acu-Link.com,2013-06-12 06:03:00,
2013-06-12 02:18:00,73.6,73.0,29.63,SSW,202,6.8,-999.0,98,-99.99,,,0.00,Acu-Link.com,2013-06-12 06:18:00,
2013-06-12 02:33:00,73.2,72.6,29.62,SSW,202,5.8,-999.0,98,-99.99,,,0.00,Acu-Link.com,2013-06-12 06:33:00,
2013-06-12 02:49:00,72.9,72.6,29.63,SSW,202,4.7,-999.0,99,-99.99,,,0.00,Acu-Link.com,2013-06-12 06:49:00,
2013-06-12 03:04:00,72.7,72.4,29.62,SSW,202,5.8,-999.0,99,-99.99,,,0.00,Acu-Link.com,2013-06-12 07:04:00,
2013-06-12 03:19:00,72.5,72.2,29.61,SSW,202,6.3,-999.0,99,-99.99,,,0.00,Acu-Link.com,2013-06-12 07:19:00,
2013-06-12 03:34:00,72.3,72.0,29.62,SSW,202,4.2,-999.0,99,-99.99,,,0.00,Acu-Link.com,2013-06-12 07:34:00,
2013-06-12 03:50:00,72.0,71.7,29.61,SSW,202,5.8,-999.0,99,-99.99,,,0.00,Acu-Link.com,2013-06-12 07:50:00,
2013-06-12 04:05:00,72.0,71.7,29.60,SW,225,5.3,-999.0,99,-99.99,,,0.00,Acu-Link.com,2013-06-12 08:05:00,
2013-06-12 04:20:00,72.0,71.7,29.60,SSW,202,5.8,-999.0,99,-99.99,,,0.00,Acu-Link.com,2013-06-12 08:20:00,
2013-06-12 04:36:00,72.1,71.8,29.61,NE,45,3.2,-999.0,99,-99.99,,,0.00,Acu-Link.com,2013-06-12 08:36:00,
2013-06-12 04:51:00,71.6,71.3,29.62,WNW,292,0.0,-999.0,99,-99.99,,,0.00,Acu-Link.com,2013-06-12 08:51:00,
2013-06-12 05:06:00,71.2,70.9,29.64,NE,45,1.1,-999.0,99,-99.99,,,0.00,Acu-Link.com,2013-06-12 09:06:00,
2013-06-12 05:21:00,70.7,70.4,29.63,ENE,67,0.0,-999.0,99,-99.99,,,0.00,Acu-Link.com,2013-06-12 09:21:00,
2013-06-12 05:36:00,70.0,69.7,29.64,South,180,0.0,-999.0,99,-99.99,,,0.00,Acu-Link.com,2013-06-12 09:36:00,
2013-06-12 05:52:00,69.6,69.3,29.64,NE,45,0.0,-999.0,99,-99.99,,,0.00,Acu-Link.com,2013-06-12 09:52:00,
2013-06-12 06:07:00,69.4,69.1,29.65,NNW,337,0.0,-999.0,99,-99.99,,,0.00,Acu-Link.com,2013-06-12 10:07:00,
2013-06-12 06:22:00,69.4,69.1,29.65,South,180,0.0,-999.0,99,-99.99,,,0.00,Acu-Link.com,2013-06-12 10:22:00,
2013-06-12 06:38:00,69.4,69.1,29.65,North,0,0.0,-999.0,99,-99.99,,,0.00,Acu-Link.com,2013-06-12 10:38:00,
2013-06-12 06:53:00,69.8,69.5,29.66,NE,45,0.0,-999.0,99,-99.99,,,0.00,Acu-Link.com,2013-06-12 10:53:00,
2013-06-12 07:08:00,71.8,71.5,29.66,ESE,112,0.0,-999.0,99,-99.99,,,0.00,Acu-Link.com,2013-06-12 11:08:00,
2013-06-12 07:23:00,75.0,74.7,29.65,South,180,1.1,-999.0,99,-99.99,,,0.00,Acu-Link.com,2013-06-12 11:23:00,
2013-06-12 07:38:00,76.5,75.9,29.65,SSW,202,3.7,-999.0,98,-99.99,,,0.00,Acu-Link.com,2013-06-12 11:38:00,
2013-06-12 07:54:00,77.7,76.8,29.65,West,270,3.7,-999.0,97,-99.99,,,0.00,Acu-Link.com,2013-06-12 11:54:00,
2013-06-12 08:09:00,79.2,77.3,29.64,WSW,247,2.7,-999.0,94,-99.99,,,0.00,Acu-Link.com,2013-06-12 12:09:00,
2013-06-12 08:24:00,79.5,77.6,29.64,SSW,202,3.2,-999.0,94,-99.99,,,0.00,Acu-Link.com,2013-06-12 12:24:00,
2013-06-12 08:39:00,80.1,78.2,29.64,SSW,202,4.7,-999.0,94,-99.99,,,0.00,Acu-Link.com,2013-06-12 12:39:00,
2013-06-12 08:55:00,80.1,78.2,29.66,West,270,5.3,-999.0,94,-99.99,,,0.00,Acu-Link.com,2013-06-12 12:55:00,
2013-06-12 09:10:00,79.3,77.7,29.67,WSW,247,6.8,-999.0,95,-99.99,,,0.00,Acu-Link.com,2013-06-12 13:10:00,
2013-06-12 09:25:00,80.4,78.8,29.67,WSW,247,7.3,-999.0,95,-99.99,,,0.00,Acu-Link.com,2013-06-12 13:25:00,
2013-06-12 09:40:00,81.1,79.2,29.67,NNW,337,5.8,-999.0,94,-99.99,,,0.00,Acu-Link.com,2013-06-12 13:40:00,
2013-06-12 09:55:00,81.0,78.8,29.67,SSW,202,6.8,-999.0,93,-99.99,,,0.00,Acu-Link.com,2013-06-12 13:55:00,
2013-06-12 10:10:00,82.2,79.6,29.67,WSW,247,6.8,-999.0,92,-99.99,,,0.00,Acu-Link.com,2013-06-12 14:10:00,
2013-06-12 10:26:00,81.9,79.0,29.68,West,270,6.8,-999.0,91,-99.99,,,0.00,Acu-Link.com,2013-06-12 14:26:00,
2013-06-12 10:41:00,81.0,79.4,29.66,West,270,6.3,-999.0,95,-99.99,,,0.00,Acu-Link.com,2013-06-12 14:41:00,
2013-06-12 10:56:00,82.2,79.3,29.67,West,270,5.3,-999.0,91,-99.99,,,0.00,Acu-Link.com,2013-06-12 14:56:00,
2013-06-12 11:11:00,82.4,80.2,29.67,SSW,202,4.2,-999.0,93,-99.99,,,0.00,Acu-Link.com,2013-06-12 15:11:00,
2013-06-12 11:26:00,84.0,80.7,29.66,NW,315,4.7,-999.0,90,-99.99,,,0.00,Acu-Link.com,2013-06-12 15:26:00,
2013-06-12 11:41:00,84.6,81.0,29.65,West,270,6.8,-999.0,89,-99.99,,,0.00,Acu-Link.com,2013-06-12 15:41:00,
2013-06-12 11:57:00,85.1,80.8,29.65,WNW,292,5.8,-999.0,87,-99.99,,,0.00,Acu-Link.com,2013-06-12 15:57:00,
2013-06-12 12:12:00,87.1,81.7,29.65,SW,225,7.3,-999.0,84,-99.99,,,0.00,Acu-Link.com,2013-06-12 16:12:00,
2013-06-12 12:27:00,88.0,81.4,29.65,SW,225,3.2,-999.0,81,-99.99,,,0.00,Acu-Link.com,2013-06-12 16:27:00,
2013-06-12 12:42:00,86.5,81.1,29.64,South,180,3.7,-999.0,84,-99.99,,,0.00,Acu-Link.com,2013-06-12 16:42:00,
2013-06-12 12:57:00,86.7,80.5,29.63,WSW,247,5.3,-999.0,82,-99.99,,,0.00,Acu-Link.com,2013-06-12 16:57:00,
2013-06-12 13:12:00,87.4,80.8,29.62,West,270,5.3,-999.0,81,-99.99,,,0.00,Acu-Link.com,2013-06-12 17:12:00,
2013-06-12 13:27:00,88.3,81.7,29.61,SW,225,8.9,-999.0,81,-99.99,,,0.00,Acu-Link.com,2013-06-12 17:27:00,
2013-06-12 13:43:00,89.4,82.8,29.60,SSW,202,8.9,-999.0,81,-99.99,,,0.00,Acu-Link.com,2013-06-12 17:43:00,
2013-06-12 13:58:00,87.1,80.2,29.59,SSW,202,7.3,-999.0,80,-99.99,,,0.00,Acu-Link.com,2013-06-12 17:58:00,
2013-06-12 14:13:00,87.4,80.8,29.57,SSW,202,9.9,-999.0,81,-99.99,,,0.00,Acu-Link.com,2013-06-12 18:13:00,
2013-06-12 14:28:00,88.2,80.4,29.56,SSW,202,7.3,-999.0,78,-99.99,,,0.00,Acu-Link.com,2013-06-12 18:28:00,
2013-06-12 14:43:00,88.0,81.0,29.52,SSE,157,7.8,-999.0,80,-99.99,,,0.00,Acu-Link.com,2013-06-12 18:43:00,
2013-06-12 14:58:00,88.3,79.3,29.54,SW,225,13.5,-999.0,75,-99.99,,,0.00,Acu-Link.com,2013-06-12 18:58:00,
2013-06-12 15:13:00,89.8,81.2,29.54,SW,225,16.6,-999.0,76,-99.99,,,0.00,Acu-Link.com,2013-06-12 19:13:00,
2013-06-12 15:28:00,89.6,81.0,29.57,WSW,247,9.4,-999.0,76,-99.99,,,0.00,Acu-Link.com,2013-06-12 19:28:00,
2013-06-12 15:43:00,88.9,81.1,29.55,SW,225,12.5,-999.0,78,-99.99,,,0.00,Acu-Link.com,2013-06-12 19:43:00,
2013-06-12 15:58:00,89.2,81.8,29.55,SSW,202,12.5,-999.0,79,-99.99,,,0.00,Acu-Link.com,2013-06-12 19:58:00,
2013-06-12 16:13:00,88.7,80.9,29.54,South,180,14.5,-999.0,78,-99.99,,,0.00,Acu-Link.com,2013-06-12 20:13:00,
2013-06-12 16:28:00,88.0,80.6,29.54,SSW,202,15.5,-999.0,79,-99.99,,,0.00,Acu-Link.com,2013-06-12 20:28:00,
2013-06-12 16:43:00,86.5,79.6,29.54,SSW,202,16.1,-999.0,80,-99.99,,,0.00,Acu-Link.com,2013-06-12 20:43:00,
2013-06-12 16:58:00,86.4,80.6,29.53,SSW,202,20.2,-999.0,83,-99.99,,,0.00,Acu-Link.com,2013-06-12 20:58:00,
2013-06-12 17:13:00,85.8,80.0,29.53,SSW,202,13.0,-999.0,83,-99.99,,,0.00,Acu-Link.com,2013-06-12 21:13:00,
2013-06-12 17:28:00,87.1,80.9,29.54,SSW,202,15.0,-999.0,82,-99.99,,,0.00,Acu-Link.com,2013-06-12 21:28:00,
2013-06-12 17:43:00,86.4,80.6,29.53,WSW,247,13.0,-999.0,83,-99.99,,,0.00,Acu-Link.com,2013-06-12 21:43:00,
2013-06-12 17:58:00,88.0,81.4,29.52,SSW,202,9.9,-999.0,81,-99.99,,,0.00,Acu-Link.com,2013-06-12 21:58:00,
2013-06-12 18:14:00,87.4,81.6,29.52,West,270,5.8,-999.0,83,-99.99,,,0.00,Acu-Link.com,2013-06-12 22:14:00,
2013-06-12 18:29:00,87.1,81.7,29.52,SW,225,8.3,-999.0,84,-99.99,,,0.00,Acu-Link.com,2013-06-12 22:29:00,
2013-06-12 18:44:00,88.0,81.8,29.51,SW,225,8.3,-999.0,82,-99.99,,,0.00,Acu-Link.com,2013-06-12 22:44:00,
2013-06-12 18:59:00,88.3,81.7,29.49,SSW,202,5.8,-999.0,81,-99.99,,,0.00,Acu-Link.com,2013-06-12 22:59:00,
2013-06-12 19:14:00,88.7,81.7,29.49,WSW,247,7.8,-999.0,80,-99.99,,,0.00,Acu-Link.com,2013-06-12 23:14:00,
2013-06-12 19:29:00,86.9,81.1,29.50,SSW,202,8.3,-999.0,83,-99.99,,,0.00,Acu-Link.com,2013-06-12 23:29:00,
2013-06-12 19:44:00,86.4,81.3,29.50,South,180,4.2,-999.0,85,-99.99,,,0.00,Acu-Link.com,2013-06-12 23:44:00,
2013-06-12 20:00:00,86.5,81.4,29.49,SW,225,2.7,-999.0,85,-99.99,,,0.00,Acu-Link.com,2013-06-13 00:00:00,
2013-06-12 20:15:00,86.0,80.6,29.48,South,180,4.2,-999.0,84,-99.99,,,0.00,Acu-Link.com,2013-06-13 00:15:00,
2013-06-12 20:30:00,85.6,80.2,29.46,SSW,202,6.3,-999.0,84,-99.99,,,0.00,Acu-Link.com,2013-06-13 00:30:00,
2013-06-12 20:46:00,85.6,79.8,29.45,SW,225,8.9,-999.0,83,-99.99,,,0.00,Acu-Link.com,2013-06-13 00:46:00,
2013-06-12 21:01:00,85.3,79.5,29.45,SSW,202,6.8,-999.0,83,-99.99,,,0.00,Acu-Link.com,2013-06-13 01:01:00,
2013-06-12 21:16:00,85.1,79.3,29.45,SSW,202,7.8,-999.0,83,-99.99,,,0.00,Acu-Link.com,2013-06-13 01:16:00,
2013-06-12 21:31:00,85.1,79.7,29.43,SSW,202,7.3,-999.0,84,-99.99,,,0.00,Acu-Link.com,2013-06-13 01:31:00,
2013-06-12 21:46:00,85.1,79.7,29.44,SSW,202,10.9,-999.0,84,-99.99,,,0.00,Acu-Link.com,2013-06-13 01:46:00,
2013-06-12 22:01:00,84.7,79.3,29.42,South,180,16.1,-999.0,84,-99.99,,,0.00,Acu-Link.com,2013-06-13 02:01:00,
2013-06-12 22:16:00,84.7,79.3,29.42,South,180,11.4,-999.0,84,-99.99,,,0.00,Acu-Link.com,2013-06-13 02:16:00,
2013-06-12 22:31:00,84.6,79.2,29.43,SSW,202,10.4,-999.0,84,-99.99,,,0.00,Acu-Link.com,2013-06-13 02:31:00,
2013-06-12 22:46:00,84.2,78.8,29.44,SSW,202,8.9,-999.0,84,-99.99,,,0.00,Acu-Link.com,2013-06-13 02:46:00,
2013-06-12 23:01:00,84.2,78.8,29.43,SSW,202,11.9,-999.0,84,-99.99,,,0.00,Acu-Link.com,2013-06-13 03:01:00,
2013-06-12 23:16:00,84.4,78.7,29.41,SSW,202,12.5,-999.0,83,-99.99,,,0.00,Acu-Link.com,2013-06-13 03:16:00,
2013-06-12 23:31:00,84.2,78.8,29.41,SSW,202,16.6,-999.0,84,-99.99,,,0.00,Acu-Link.com,2013-06-13 03:31:00,
2013-06-12 23:46:00,84.0,78.6,29.40,SSW,202,15.5,-999.0,84,-99.99,,,0.00,Acu-Link.com,2013-06-13 03:46:00,